Weather History for Lamoni, IA

Change the Weather History Date:

Sunday, October 21, 2012

  Actual Average Record
Temperature  
Mean Temperature 63 °F 51 °F  
Max Temperature 79 °F 62 °F 83 °F (1978)
Min Temperature 47 °F 41 °F 26 °F (1976)
Degree Days  
Heating Degree Days 2 14  
Month to date heating degree days 264 224  
Since 1 July heating degree days 373 324  
Cooling Degree Days 0 0  
Month to date cooling degree days 0 11  
Year to date cooling degree days 1292 944  
Growing Degree Days 12 (Base 50)    
Moisture  
Dew Point 53 °F    
Average Humidity 70    
Maximum Humidity 86    
Minimum Humidity 54    
Precipitation  
Precipitation 0.00 in 0.11 in 1.23 in (2001)
Month to date precipitation 2.01 1.87  
Sea Level Pressure  
Sea Level Pressure 29.81 in    
Wind  
Wind Speed 8 mph (SSE)    
Max Wind Speed 18 mph    
Max Gust Speed 26 mph    
Visibility 10 miles    
Events      
T = Trace of Precipitation, MM = Missing Value Source: NWS Daily Summary

Daily Weather History Graph

Daily Weather History Graph

Search for Another Location

Airport:

Trip Planner

Search our weather history database for the weather conditions in past years. The results will help you decide how hot, cold, wet, or windy it might be!

Date:

Astronomy

Oct. 21, 2012 Rise Set
Actual Time 7:33 AM CDT 6:25 PM CDT
Civil Twilight 7:05 AM CDT 6:53 PM CDT
Nautical Twilight 6:34 AM CDT 7:25 PM CDT
Astronomical Twilight 6:02 AM CDT 7:57 PM CDT
Moon 1:55 PM CDT (10/21) No Moon Set
Length of Visible Light 11h 47m
Length of Day
10h 51m
Waxing Crescent, 45% of the Moon is Illuminated
Oct 21
Waxing Crescent
Oct 21
First Quarter
Oct 29
Full
Nov 6
Last Quarter
Nov 13
New

Hourly Weather History & Observations

Time (CDT) Temp. Dew Point Humidity Pressure Visibility Wind Dir Wind Speed Gust Speed Precip Events Conditions
12:53 AM 48.9 °F 42.1 °F 77% 29.82 in 10.0 mi East 5.8 mph - N/A   Clear
1:53 AM 48.0 °F 42.1 °F 80% 29.81 in 10.0 mi East 4.6 mph - N/A   Clear
2:53 AM 48.0 °F 42.1 °F 80% 29.80 in 10.0 mi ESE 6.9 mph - N/A   Clear
3:53 AM 48.0 °F 42.1 °F 80% 29.80 in 10.0 mi ESE 4.6 mph - N/A   Clear
4:53 AM 48.0 °F 42.1 °F 80% 29.79 in 10.0 mi SE 6.9 mph - N/A   Clear
5:53 AM 48.0 °F 42.1 °F 80% 29.81 in 10.0 mi SSE 8.1 mph - N/A   Clear
6:53 AM 48.0 °F 42.1 °F 80% 29.81 in 10.0 mi SSE 6.9 mph - N/A   Clear
7:53 AM 46.9 °F 42.1 °F 83% 29.82 in 10.0 mi SSE 6.9 mph - N/A   Clear
8:53 AM 51.1 °F 44.1 °F 77% 29.83 in 10.0 mi SSE 6.9 mph - N/A   Clear
9:53 AM 55.9 °F 46.0 °F 69% 29.86 in 10.0 mi SSE 8.1 mph - N/A   Clear
10:53 AM 62.1 °F 50.0 °F 65% 29.85 in 10.0 mi SSE 8.1 mph - N/A   Clear
11:53 AM 66.9 °F 54.0 °F 63% 29.85 in 10.0 mi South 8.1 mph - N/A   Clear
12:53 PM 71.1 °F 55.9 °F 59% 29.82 in 10.0 mi SSE 6.9 mph - N/A   Clear
1:53 PM 75.0 °F 59.0 °F 57% 29.79 in 10.0 mi SSE 9.2 mph 17.3 mph N/A   Clear
2:53 PM 77.0 °F 60.1 °F 56% 29.77 in 10.0 mi SSE 11.5 mph 24.2 mph N/A   Clear
3:53 PM 78.1 °F 61.0 °F 56% 29.77 in 10.0 mi SSE 15.0 mph 24.2 mph N/A   Clear
4:53 PM 77.0 °F 62.1 °F 60% 29.76 in 10.0 mi SSE 10.4 mph 20.7 mph N/A   Partly Cloudy
5:53 PM 75.0 °F 62.1 °F 64% 29.78 in 10.0 mi SSE 11.5 mph 17.3 mph N/A   Overcast
6:53 PM 73.9 °F 62.1 °F 66% 29.79 in 10.0 mi South 9.2 mph 17.3 mph N/A   Overcast
7:53 PM 73.0 °F 62.1 °F 68% 29.81 in 10.0 mi SSE 8.1 mph - N/A   Overcast
8:53 PM 72.0 °F 62.1 °F 71% 29.81 in 10.0 mi SSE 8.1 mph - N/A   Overcast
9:53 PM 71.1 °F 61.0 °F 70% 29.82 in 10.0 mi SE 8.1 mph - N/A   Overcast
10:53 PM 71.1 °F 61.0 °F 70% 29.82 in 10.0 mi SSE 9.2 mph - N/A   Overcast
11:53 PM 71.1 °F 61.0 °F 70% 29.81 in 10.0 mi SSE 5.8 mph - N/A   Overcast